Regional Weather Roundup
Issued by NWS Grand Forks, ND

Home | Current Version | Previous Version | Text Only | Print | Product List | Glossary On
Versions: 1 2 3 4 5 6 7 8 9 10 11 12 13 14 15 16 17 18 19 20 21 22 23 24 25 26 27 28 29 30 31 32 33 34 35 36 37 38 39 40 41 42 43 44 45 46 47 48 49 50
000
ASUS43 KFGF 292131
RWRFGF
PRAIRIE TO PINES  WEATHER ROUNDUP
NATIONAL WEATHER SERVICE EASTERN NORTH DAKOTA/GRAND FORKS ND
400 PM CDT MON AUG 29 2016

 **SATELLITE DATA USED TO AUGMENT SKY COVER AT AUTOMATED STATIONS**
 *****  WEATHER ACROSS EASTERN NORTH DAKOTA  *****

CITY           SKY/WX    TMP DP  RH WIND       PRES   REMARKS
GRAND FORKS    MOSUNNY   82  58  43 NW10      30.14F
GRAND FRKS AFB NOT AVBL
GRAND FRKS NWS   N/A     81 N/A N/A NW15        N/A
DEVILS LAKE    SUNNY     73  51  46 W7        30.22F
FARGO          SUNNY     83  67  58 N14       30.14F
WAHPETON ARPT  PTCLDY    82  64  54 N8        30.13S
$$

 ***** WEATHER ACROSS CENTRAL AND WESTERN NORTH DAKOTA  *****

CITY           SKY/WX    TMP DP  RH WIND       PRES   REMARKS
BISMARCK       SUNNY     80  51  36 NE6       30.23F
MINOT          SUNNY     78  44  29 VRB3      30.24F
JAMESTOWN      SUNNY     78  57  48 NW13      30.19F
MINOT AFB      SUNNY     75  42  29 N6        30.23F
GARRISON         N/A     79  42  26 VRB6      30.25F
WILLISTON      SUNNY     80  39  23 N5        30.26F
DICKINSON      SUNNY     79  42  26 E9        30.25F
HETTINGER      SUNNY     82  48  30 NE9       30.27F
$$

 *****  OTHER AIRPORT OBSERVATIONS IN OUR AREA  *****

CITY           SKY/WX    TMP DP  RH WIND       PRES   REMARKS
WALHALLA       FAIR      72  68  88 W12       30.19S
GRAFTON AIRPOR FAIR      79  55  44 NW13      30.17F
VALLEY CITY AR FAIR      77  63  61 N10       30.20S
CANDO          FAIR      75  48  38 NW13G18   30.24S
CAVALIER APRT  FAIR      73  52  46 NW14      30.17S
GWINNER        FAIR      82  70  65 NE12      30.16F
SHEYENNE NWR     N/A     82  68  61 N7        29.95S
ROLLA          FAIR      70  46  43 NW10      30.24F
 ***** THE ABOVE OBSERVATIONS ARE NON NWS ARE NOT QUALITY
       CONTROLLED AND MAY MIS-REPORT RAIN FOR SNOW...
$$

  *****  WEATHER ACROSS NORTHERN MINNESOTA  *****

CITY           SKY/WX    TMP DP  RH WIND       PRES   REMARKS
FLAG ISLAND    SUNNY     73  61  64 NW5       30.10S
WARROAD        SUNNY     79  64  61 W9        30.12S
ROSEAU         SUNNY     77  63  61 NW13G18   30.14R
HALLOCK        SUNNY     75  52  43 NW13G18   30.16S
THF RVR FALLS  SUNNY     77  61  57 NW13      30.16F
BAUDETTE       PTSUNNY   79  64  60 NW12      30.11F
WASKISH        SUNNY     77  70  78 SW12      30.12F
CROOKSTON      SUNNY     79  61  53 N10G16    30.15F
STEPHEN NDAWN    N/A     75  57  53 NW10        N/A
GREENBUSH NDAW   N/A     77  57  50 NW12        N/A
$$
  *****  WEATHER ACROSS CENTRAL AND WEST MINNESOTA  *****

CITY           SKY/WX    TMP DP  RH WIND       PRES   REMARKS
FOSSTON        MOSUNNY   79  64  61 NW7       30.16F
BEMIDJI        PTSUNNY   75  68  79 W9        30.14F
PARK RAPIDS    CLOUDY    84  69  60 W13       30.14F
ELBOW LAKE     FAIR      83  71  66 W6        30.14F HAZE
WADENA         SUNNY     82  70  65 W7        30.14F
DETROIT LAKES  PTSUNNY   77  70  78 NW13      30.17S
MOORHEAD       MOSUNNY   81  66  61 N10G17    30.15S
FERGUS FALLS   PTSUNNY   81  72  74 N7        30.14S
MORRIS MN      SUNNY     88  70  55 SW6       30.12F HX  92
STAPLES        MOSUNNY   82  68  61 W8        30.14F
$$
  *****  WEATHER ELSEWHERE ACROSS MINNESOTA  *****

CITY           SKY/WX    TMP DP  RH WIND       PRES   REMARKS
DULUTH         MOSUNNY   83  66  56 W15       30.14S
INTRNTL FALLS  MOSUNNY   79  66  64 W9        30.10S
ELY            PTSUNNY   75  64  69 W10       30.13R
CLOQUET        SUNNY     82  64  54 W8        30.14S
WHEATON        SUNNY     88  72  58 CALM      30.13F HX  94
BRAINERD       MOSUNNY   83  68  60 W7        30.14F
HIBBING        CLOUDY    78  68  71 W7        30.13S
ALEXANDRIA     MOSUNNY   84  72  67 W8        30.16F
SAINT CLOUD    SUNNY     86  73  65 SW13      30.13F HX  93
MINNEAPOLIS    PTSUNNY   85  69  58 SW13      30.14F
$$

  *****  WEATHER ACROSS SOUTH DAKOTA  *****

CITY           SKY/WX    TMP DP  RH WIND       PRES   REMARKS
SIOUX FALLS    CLOUDY    83  71  67 S10       30.14F
BROOKINGS      PTSUNNY   84  72  67 S13       30.15F
WATERTOWN      MOSUNNY   88  69  53 SW14      30.14F HX  92
HURON          MOSUNNY   89  70  53 S15       30.10F HX  94
SISSETON         N/A     86  71  60 N8        30.12F HX  91
ABERDEEN       MOSUNNY   84  70  62 NE8       30.14F
MITCHELL       MOSUNNY   87  69  54 S12G18    30.12F HX  91
PIERRE         SUNNY     89  63  41 NE8G17    30.11F HX  90
MOBRIDGE       SUNNY     88  53  30 NE13G22   30.16F
RAPID CITY     SUNNY     83  58  42 NE13      30.24F
$$

  *****  SOME WEATHER IN NEARBY STATES *****

CITY           SKY/WX    TMP DP  RH WIND       PRES   REMARKS
GLASGOW MT     SUNNY     79  46  31 SE13      30.22F
GREAT FALLS MT SUNNY     87  45  23 E12       30.16F
CHEYENNE WY    MOSUNNY   80  35  19 VRB7      30.33F
SCOTTSBLUFF NE CLOUDY    89  50  26 E14       30.22F
OMAHA NE       PTSUNNY   86  74  67 N8        30.11F HX  94
DES MOINES IA  TSTM      75  72  90 SE3       30.15F FOG
DAVENPORT IA   CLOUDY    79  73  82 N9        30.19R
CHICAGO IL     LGT RAIN  75  73  93 N5        30.19S FOG
EAU CLAIRE WI  MOSUNNY   83  70  64 S14       30.14F
LA CROSSE WI   CLOUDY    84  71  65 S9        30.16S
$$

  *****  SOME NATIONAL WEATHER *****

CITY           SKY/WX    TMP DP  RH WIND       PRES   REMARKS
LA GUARDIA NY  MOSUNNY   90  60  36 N13       30.05S
RALEIGH NC     MOSUNNY   89  63  41 NE5       30.09S HX  90
ATLANTA GA     MOSUNNY   89  69  51 E13       30.07F HX  93
NEW ORLEANS LA CLOUDY    89  75  63 E8        29.93F HX  99
OKLAHOMA CITY  PTSUNNY   91  63  39 E9G18     30.07F HX  92
ALBUQUERQUE NM MOSUNNY   80  47  31 E16       30.22F
SALT LAKE CITY MOSUNNY   94  31  10 NW14      30.15F
LOS ANGELES CA MOSUNNY   76  63  64 W16       29.92F
BOISE ID       PTSUNNY   88  42  20 W7        30.06F
SEATTLE WA     MOSUNNY   72  52  49 SW3       30.02F
$$

*** WEATHER ACROSS MANITOBA...SASKATCHEWAN AND ONTARIO ***
                ***ONTARIO***

CITY           SKY/WX    TMP DP  RH WIND       PRES   REMARKS
GERALDTON      CLOUDY    64  61  88 S6        30.10F
THUNDER BAY    MOSUNNY   77  68  73 S9        30.07F
SIOUX LOOKOUT  MOSUNNY   73  64  73 NW7       30.07F
TORONTO        MOSUNNY   79  61  53 SE7       30.20F
BIG TROUT LK   PTSUNNY   73  63  68 NW9       29.90S
PICKLE LAKE    PTSUNNY   77  59  53 W12       29.99F
DRYDEN         PTSUNNY   73  61  64 NW12      30.08F
KENORA         MOSUNNY   70  59  68 NW12      30.13R
$$
                *** MANITOBA***

CITY           SKY/WX    TMP DP  RH WIND       PRES   REMARKS
BRANDON        MOSUNNY   70  45  40 NW13G20   30.21F
DAUPHIN        SUNNY     70  45  40 W20G25    30.16F
ISLAND LAKE    PTSUNNY   63  52  67 W15G23    30.02R
PILOT MOUND      N/A     70  50  49 NW12G18     N/A
THE PAS        MOSUNNY   66  45  45 W22G30    30.07S
THOMPSON       CLOUDY    59  48  67 W16G24    29.94R
WINNIPEG       MOSUNNY   72  50  46 NW14G22   30.16F
LYNN LAKE      CLOUDY    57  50  77 MISG      29.96R
CHURCHILL      LGT RAIN  50  50 100 E13       29.82R FOG
GILLAM         CLOUDY    61  50  67 W12G18    29.87F
$$
                ***SASKATCHEWAN***

CITY           SKY/WX    TMP DP  RH WIND       PRES   REMARKS
ESTEVAN        MOSUNNY   75  43  31 VRB5      30.25F
KINDERSLEY     PTSUNNY   68  45  42 E3        30.22F
LLOYDMINSTER   PTSUNNY   61  41  48 VRB2      30.24F
PRINCE ALBERT  MOSUNNY   64  41  42 NW13      30.22F
REGINA         MOSUNNY   68  43  40 VRB3      30.25F
YORKTON        SUNNY     66  43  42 W12G17    30.22F
N. BATTLEFORD  SUNNY     63  41  45 SW5       30.27S
LA RONGE       MOSUNNY   63  39  42 W17G29    30.16
SASKATOON      PTSUNNY   66  39  37 NW8       30.25F
SWIFT CURRENT  SUNNY     70  46  43 SE8       30.22F
$$
NOTE: THESE ARE AUTOMATED STATIONS WITH LIMITED QUALITY CONTROL
      "FAIR" INDICATES FEW OR NO CLOUDS BELOW 12,000 FEET WITH NO
      SIGNIFICANT WEATHER AND/OR OBSTRUCTIONS TO VISIBILITY.
      SKY/WX - SKY CONDITION AND SIGNIFICANT WEATHER.
      TMP - AIR TEMPERATURE.    DP   - DEWPOINT TEMPERATURE.
      RH  - RELATIVE HUMIDITY.  PRES - PRESSURE.
      HX  - HEAT INDEX.         WCI  - WIND CHILL INDEX.
$




USA.gov is the U.S. government's official web portal to all federal, state and local government web resources and services.